Sawtelle Peak

Sawtelle summit stationLocated on Sawtelle Peak in the Centennials. Use the Sawtelle SNOdar or the nearest SNOTEL station for snow depth data: White Elephant. The data on this page is also available to view at dataGarrison.com.

 

Elevation
9885ft
Jump to table bottom
Date Time Temperature
deg F
RH, % Wind Speed Wind Gust Wind Direction Pressure Light
02/29/24 09:00 17.0 94 35 48 W - 258 696.000 274,342
02/29/24 08:00 16.4 94 34 46 W - 258 696.260 345,531
02/29/24 07:00 13.1 94 35 47 W - 256 696.180 160,440
02/29/24 06:00 12.1 94 31 43 W - 258 696.440 10
02/29/24 05:00 11.9 94 28 39 W - 260 697.280 0
02/29/24 04:00 11.7 93 24 34 W - 264 697.700 0
02/29/24 03:00 11.9 94 27 38 W - 264 698.120 0
02/29/24 02:00 11.6 93 27 39 W - 261 698.240 0
02/29/24 01:00 11.3 93 34 45 W - 256 698.360 0
02/29/24 00:00 11.3 93 37 48 W - 265 697.820 0
02/28/24 23:00 11.1 93 25 66 W - 272 698.480 0
02/28/24 22:00 10.6 93 24 43 W - 275 699.240 0
02/28/24 21:00 10.3 93 19 48 W - 282 699.440 0
02/28/24 20:00 10.8 93 26 36 W - 291 699.480 0
02/28/24 19:00 11.0 93 26 47 NW - 293 699.740 0
02/28/24 18:00 10.3 93 18 44 W - 292 699.960 251
02/28/24 17:00 10.5 93 22 36 W - 292 700.020 40,944
02/28/24 16:00 11.0 93 22 40 W - 292 700.160 175,695
02/28/24 15:00 11.8 93 20 46 NW - 293 700.320 274,342
02/28/24 14:00 10.3 92 32 49 W - 286 699.580 335,361
02/28/24 13:00 10.4 92 35 52 W - 282 699.120 420,788
02/28/24 12:00 8.9 92 39 57 W - 277 699.160 538,758
02/28/24 11:00 8.4 92 37 54 W - 291 699.500 506,215
02/28/24 10:00 6.9 91 37 52 W - 286 698.580 274,342
02/28/24 09:00 4.9 91 36 51 W - 279 698.480 204,170
02/28/24 08:00 4.2 91 38 51 W - 279 698.520 131,964
02/28/24 07:00 2.8 90 44 57 W - 274 698.080 12,659
02/28/24 06:00 0.9 90 38 51 W - 279 697.800 3
02/28/24 05:00 0.8 90 40 51 W - 288 696.920 0
02/28/24 04:00 0.8 90 36 49 NW - 295 697.140 0
02/28/24 03:00 1.5 90 32 47 NW - 303 697.600 1
02/28/24 02:00 0.0 90 38 55 NW - 295 697.400 0
02/28/24 01:00 -0.3 89 38 51 W - 292 696.460 0
02/28/24 00:00 -0.3 89 31 44 NW - 295 696.540 0
02/27/24 23:00 -0.2 90 28 44 W - 289 695.560 0
02/27/24 22:00 -1.7 89 22 37 NW - 317 696.520 0
02/27/24 21:00 -2.0 89 24 34 NW - 317 695.900 0
02/27/24 20:00 -2.7 89 14 29 NW - 329 695.380 0
02/27/24 19:00 -2.7 89 15 31 NW - 324 694.920 0
02/27/24 18:00 -2.6 89 10 34 N - 343 694.320 393
02/27/24 17:00 -1.5 89 12 34 N - 338 693.620 65,606
02/27/24 16:00 -0.5 89 11 31 NW - 337 693.000 156,372
02/27/24 15:00 1.4 89 10 33 NW - 330 692.560 211,289
02/27/24 14:00 2.0 90 9 37 NW - 336 691.840 199,085
02/27/24 13:00 3.7 90 7 28 NW - 330 691.560 226,544
02/27/24 12:00 4.7 90 6 25 NW - 327 691.560 177,729
02/27/24 11:00 6.6 91 3 20 NW - 330 691.200 260,104
02/27/24 10:00 4.5 91 0 10 NW - 321 690.620 538,758
02/27/24 09:00 0.4 90 1 11 NW - 323 689.960 266,206
02/27/24 08:00 -0.9 89 2 13 N - 338 689.480 162,474